User: anonymous   Login
Location: Unspecified
(0.0000°N, 0.0000°E)
Time: 06:31:51
(UTC+02:00)
Language:

Helios 1A Rocket - Orbit

View from above orbital plane
View from above orbital plane
View from above satellite
View from above satellite

Ground track
Ground track

The orbit data is extracted from the following two-line orbital elements,

1 23608U 95033D   17267.58059276 +.00001054 +00000-0 +98570-4 0  9997
2 23608 098.2265 204.8285 0015228 288.5137 071.4428 14.96398784202317
Epoch (UTC): 24 September 2017 13:56:03
Eccentricity: 0.0015228
inclination: 98.2265°
perigee height: 567 km
apogee height: 588 km
right ascension of ascending node: 204.8285°
argument of perigee: 288.5137°
revolutions per day: 14.96398784
mean anomaly at epoch: 71.4428°
orbit number at epoch: 20231

The dashed part of the orbit path shows where the satellite is in the earth's shadow,  

DLR